Location: Unspecified
(0.0000°N, 0.0000°E)
Time: 13:41:25
(UTC+00:00)

STARLINK-34349 - Visible Passes

Search period start: 20 July 2025 00:00
Search period end: 30 July 2025 00:00
Orbit: 446 x 448 km, 53.2° (Epoch: 20 July)

Date Brightness Start Highest point End Pass type
(mag) Time Alt. Az. Time Alt. Az. Time Alt. Az.
21 Jul 6.0 19:11:17 10° W 19:13:05 13° SW 19:14:53 10° SSW visible
22 Jul 5.9 05:14:33 10° SSE 05:16:49 16° SE 05:19:05 10° E visible
22 Jul 5.5 18:31:50 10° WNW 18:34:37 22° SW 18:37:24 10° S visible
24 Jul 3.5 05:33:33 10° SW 05:36:58 49° NW 05:40:23 10° NNE visible
25 Jul 3.1 04:56:58 31° SSW 04:58:31 89° ESE 05:02:01 10° NE visible
26 Jul 4.4 04:20:42 41° E 04:20:42 41° E 04:23:26 10° NE visible
27 Jul 6.6 03:44:24 11° ENE 03:44:24 11° ENE 03:44:35 10° ENE visible
28 Jul 5.6 04:41:35 13° NNW 04:41:35 13° NNW 04:42:26 10° NNW visible
